{"data":{"norad_id":58932,"epoch":"2026-09-20T22:17:52.803168Z","epoch_age_seconds":118365,"freshness":"FRESH","line1":"1 58932U 24027B   26263.92908337  .00009951  00000+0  33250-3 0  9991","line2":"2 58932  53.1595 121.1066 0001688 104.7712 255.3477 15.31652586147242","mean_motion":15.31652586,"eccentricity":0.0001688,"inclination_deg":53.1595,"raan_deg":121.1066,"arg_perigee_deg":104.7712,"mean_anomaly_deg":255.3477,"bstar":0.0003325,"rev_number":14724,"period_min":94.016098243313,"perigee_km":469.72522324311,"apogee_km":472.03745183387,"semimajor_km":6849.0183375385,"source":"CELESTRAK","updated_at":"2026-09-21T09:00:33.995985Z"}}